Location: Pasadena-CA
(34.1440°N, 118.1100°W)
Time: 23:52:53
(UTC-07:00)

Oscar 19 - Pass Details

Date: 04 July 2022
Orbit: 773 x 790 km, 98.8° (Epoch: 14 August)

Event Time Altitude Azimuth Distance (km) Brightness Sun altitude
Rises 05:12:58 0° 359° (N) 3,254 14.3 -6.7°
Reaches altitude 10° 05:15:34 10° 348° (NNW) 2,323 13.4 -6.2°
Maximum altitude 05:19:50 28° 291° (WNW) 1,433 11.7 -5.5°
Drops below altitude 10° 05:24:06 10° 234° (SW) 2,315 12.4 -4.7°
Enters shadow 05:25:27 - 227° (SW) 2,781 12.8 -4.5°
